北斗一号 G3 (BEIDOU-1 G3)

基本信息
目录编号:
27813
目录名称:
BD 1 03
国际标识:
2003-021A
轨道中心:
EARTH
卫星名称:
北斗一号 G3
卫星全名:
北斗一号 G3 (BEIDOU-1 G3)
卫星状态:
在轨 (已飞行8330 天)
发射日期:
2003-05-24 UTC
国别 :
中国 (CN)
星等 :
--
轨道信息
数据来源 国际轨道数据 AOE轨道数据
星历时间 2026-03-13T18:35:25+0800
14小时前
查看轨道信息
2026-03-13T06:00:00+0800
1天前
查看轨道信息
半长轴 42307.178km 42307.206km
偏心率 0.0019499 0.0019405
轨道倾角 11.194° 11.193°
近地点辐角 301.733° 301.566°
升交点赤经 42.033° 42.037°
平近点角 55.440° 227.187°
近地点 35846.546km 35846.971km
远地点 36011.536km 36011.167km
周期 1443.380分钟 1443.382分钟
每日圈数 0.997658 0.997657
详细信息
卫星平台:
东方红三号
平衡模式:
三轴稳定
制造商(研发单位):
中国空间技术研究院
制造商所在国:
中国
使用方式:
暂无
卫星简介
北斗卫星导航系统是中国着眼于国家安全和经济社会发展需要,自主建设运行的全球卫星导航系统,是为全球用户提供全天候、全天时、高精度的定位、导航和授时服务的国家重要时空基础设施。该卫星已退役。
2D轨道图
3D轨道图
轨道高度分析图
轨道倾角分析图
轨道综合分析图
查看轨道综合分析图